Tracking 18980 objects as of 18-Feb-2018
HD Live streaming from Space Station
objects crossing your sky now

METEOR 2-16

Track METEOR 2-16 now!
10-day predictions
METEOR 2-16 is classified as:


NORAD ID: 18312
Int'l Code: 1987-068A
Perigee: 945.9 km
Apogee: 962.7 km
Inclination: 82.6 °
Period: 104.0 minutes
Semi major axis: 7325 km
RCS: 4.5144 m2 (large)
Launch date: August 18, 1987
Source: Commonwealth of Independent States (former USSR) (CIS)
Launch site: PLESETSK MISSILE AND SPACE COMPLEX (PKMTR)
aabbcc
Your satellite tracking list
Your tracking list is empty




NASA's NSSDC Master Catalog

Two Line Element Set (TLE):
1 18312U 87068A   18048.47956054 -.00000001 +00000-0 -13833-4 0  9990
2 18312 082.5574 189.9098 0011446 311.7550 048.2631 13.84725156541332
Source of the keplerian elements: AFSPC